Weather History for Alpena, MI

Change the Weather History Date:

Wednesday, January 2, 2013

  Actual Average Record
Temperature  
Mean Temperature 20 °F 21 °F  
Max Temperature 27 °F 28 °F 50 °F (1998)
Min Temperature 13 °F 14 °F -9 °F (1924)
Degree Days  
Heating Degree Days 45 44  
Month to date heating degree days 93 88  
Since 1 July heating degree days 2869 3149  
Moisture  
Dew Point 14 °F    
Average Humidity 72    
Maximum Humidity 81    
Minimum Humidity 63    
Precipitation  
Precipitation T in 0.05 in 0.71 in (1936)
Month to date precipitation T 0.11  
Year to date precipitation T 0.11  
Snow  
Snow T in 0.70 in 5.60 in (1965)
Month to date snowfall 0.2 1.4  
Since 1 July snowfall 13.9 28.7  
Snow Depth 4.00 in    
Sea Level Pressure  
Sea Level Pressure 30.07 in    
Wind  
Wind Speed 5 mph (WSW)    
Max Wind Speed 12 mph    
Max Gust Speed 15 mph    
Visibility 10 miles    
Events Snow    
T = Trace of Precipitation, MM = Missing Value Source: NWS Daily Summary

Daily Weather History Graph

Daily Weather History Graph

Search for Another Location

Airport:

Trip Planner

Search our weather history database for the weather conditions in past years. The results will help you decide how hot, cold, wet, or windy it might be!

Date:

Astronomy

Jan. 02, 2013 Rise Set
Actual Time 8:12 AM EST 5:04 PM EST
Civil Twilight 7:39 AM EST 5:37 PM EST
Nautical Twilight 7:02 AM EST 6:15 PM EST
Astronomical Twilight 6:26 AM EST 6:50 PM EST
Moon 10:52 PM EST (1/2) 10:39 AM EST (1/2)
Length of Visible Light 9h 58m
Length of Day
8h 51m
Waning Gibbous, 75% of the Moon is Illuminated
Jan 2
Waning Gibbous
Jan 4
Last Quarter
Jan 11
New
Jan 18
First Quarter
Jan 26
Full

Hourly Weather History & Observations

Time (EST) Temp. Windchill Dew Point Humidity Pressure Visibility Wind Dir Wind Speed Gust Speed Precip Events Conditions
12:42 AM 19.4 °F 10.4 °F 12.2 °F 74% 29.96 in 9.0 mi WSW 6.9 mph - 0.00 in Snow Light Snow
12:54 AM 19.0 °F 12.3 °F 12.0 °F 74% 29.99 in 9.0 mi West 4.6 mph - 0.00 in Snow Light Snow
1:49 AM 19.4 °F 11.5 °F 12.2 °F 74% 29.95 in 9.0 mi WSW 5.8 mph - 0.00 in Snow Light Snow
1:54 AM 19.0 °F 12.3 °F 12.0 °F 74% 29.99 in 9.0 mi WSW 4.6 mph - 0.00 in Snow Light Snow
2:54 AM 18.0 °F 11.1 °F 12.0 °F 78% 30.01 in 9.0 mi West 4.6 mph - 0.00 in Snow Light Snow
3:40 AM 17.6 °F 9.3 °F 12.2 °F 79% 29.97 in 9.0 mi WSW 5.8 mph - 0.00 in Snow Light Snow
3:54 AM 17.1 °F 10.0 °F 12.0 °F 81% 30.01 in 9.0 mi WSW 4.6 mph - 0.00 in Snow Light Snow
4:16 AM 17.6 °F 8.2 °F 12.2 °F 79% 29.97 in 9.0 mi WSW 6.9 mph - 0.00 in Snow Light Snow
4:54 AM 17.1 °F 6.6 °F 12.0 °F 81% 30.01 in 9.0 mi WSW 8.1 mph - 0.00 in Snow Light Snow
5:54 AM 17.1 °F 8.7 °F 12.0 °F 81% 30.03 in 9.0 mi WSW 5.8 mph - 0.00 in Snow Light Snow
6:54 AM 16.0 °F 10.4 °F 10.9 °F 81% 30.04 in 9.0 mi West 3.5 mph - 0.00 in Snow Light Snow
7:54 AM 15.1 °F - 10.9 °F 84% 30.07 in 9.0 mi Calm Calm - 0.00 in Snow Light Snow
8:00 AM 15.8 °F - 10.4 °F 79% 30.03 in 10.0 mi Calm Calm - 0.00 in   Scattered Clouds
8:54 AM 16.0 °F 10.4 °F 12.0 °F 84% 30.09 in 10.0 mi SW 3.5 mph - 0.00 in   Mostly Cloudy
9:54 AM 19.0 °F 13.9 °F 12.9 °F 77% 30.10 in 10.0 mi West 3.5 mph - N/A   Mostly Cloudy
10:54 AM 21.9 °F 15.7 °F 15.1 °F 75% 30.11 in 10.0 mi West 4.6 mph - N/A   Overcast
11:54 AM 24.1 °F 16.0 °F 16.0 °F 71% 30.12 in 10.0 mi West 6.9 mph - N/A   Overcast
12:54 PM 26.1 °F 20.5 °F 16.0 °F 66% 30.11 in 10.0 mi WNW 4.6 mph - N/A   Overcast
1:40 PM 24.8 °F 19.1 °F 17.6 °F 74% 30.07 in 10.0 mi WSW 4.6 mph - N/A   Overcast
1:49 PM 24.8 °F 19.1 °F 17.6 °F 74% 30.07 in 10.0 mi West 4.6 mph - N/A   Overcast
1:54 PM 25.0 °F 17.1 °F 17.1 °F 72% 30.11 in 10.0 mi WSW 6.9 mph - N/A   Overcast
2:54 PM 26.1 °F 19.4 °F 17.1 °F 69% 30.11 in 10.0 mi SSW 5.8 mph - 0.00 in   Mostly Cloudy
3:54 PM 26.1 °F 20.5 °F 16.0 °F 66% 30.12 in 10.0 mi SW 4.6 mph - N/A   Mostly Cloudy
4:54 PM 25.0 °F 20.7 °F 17.1 °F 72% 30.13 in 10.0 mi WSW 3.5 mph - N/A   Overcast
5:54 PM 25.0 °F - 18.0 °F 75% 30.13 in 10.0 mi Calm Calm - N/A   Overcast
6:54 PM 24.1 °F 19.7 °F 18.0 °F 77% 30.15 in 10.0 mi WSW 3.5 mph - N/A   Overcast
7:54 PM 24.1 °F 19.7 °F 18.0 °F 77% 30.14 in 10.0 mi SSW 3.5 mph - N/A   Overcast
8:54 PM 23.0 °F 17.0 °F 17.1 °F 78% 30.14 in 10.0 mi WSW 4.6 mph - N/A   Overcast
9:54 PM 23.0 °F 14.7 °F 16.0 °F 74% 30.12 in 10.0 mi SW 6.9 mph - N/A   Overcast
10:54 PM 23.0 °F 15.8 °F 14.0 °F 68% 30.12 in 10.0 mi SW 5.8 mph - N/A   Overcast
11:05 PM 23.0 °F 15.8 °F 14.0 °F 68% 30.08 in 10.0 mi SW 5.8 mph - N/A   Overcast
11:54 PM 23.0 °F 17.0 °F 15.1 °F 72% 30.11 in 10.0 mi SSW 4.6 mph - N/A   Overcast